When you browse on this site, cookies collect data to enhance your experience and personalize the content and advertising you see.
Visit our Privacy Policy to learn more. By continuing to use the site, you agree to this use of cookies and data.
  • In Lithuania
  • List of Countries
  • For 7 days
  • Water Temperature
  • Satellite Maps
  • Weather Map
  • Weather Widgets
  • user-avatar
    Login

    Hourly Weather Oktyabrskiy

    Today, 23 May, Thursday

    Time Temperature Precipitation Wind Pressure Humidity
    00:00 +13°C° 0.1 mm 3 mps 740 mmHg 94%
    01:00 +13°C° 0.3 mm 3 mps 740 mmHg 95%
    02:00 +13°C° 0.3 mm 3 mps 740 mmHg 95%
    03:00 +13°C° 0 mm 3 mps 739 mmHg 96%
    04:00 +13°C° 0.4 mm 3 mps 739 mmHg 95%
    05:00 +13°C° 0.4 mm 3 mps 739 mmHg 93%
    06:00 +14°C° 0.4 mm 3 mps 739 mmHg 92%
    07:00 +15°C° 0.5 mm 4 mps 739 mmHg 83%
    08:00 +18°C° 0.5 mm 4 mps 739 mmHg 75%
    09:00 +19°C° 0.5 mm 5 mps 739 mmHg 66%
    10:00 +20°C° 0.5 mm 5 mps 739 mmHg 64%
    11:00 +21°C° 0.5 mm 6 mps 739 mmHg 61%
    12:00 +21°C° 0.5 mm 6 mps 739 mmHg 59%
    13:00 +22°C° 0.6 mm 6 mps 738 mmHg 59%
    14:00 +22°C° 0.6 mm 6 mps 738 mmHg 59%
    15:00 +22°C° 0.6 mm 6 mps 738 mmHg 59%
    16:00 +21°C° 0.4 mm 6 mps 738 mmHg 63%
    17:00 +21°C° 0.4 mm 5 mps 738 mmHg 67%
    18:00 +20°C° 0.4 mm 5 mps 738 mmHg 70%
    19:00 +19°C° 0.1 mm 4 mps 738 mmHg 75%
    20:00 +18°C° 0.1 mm 4 mps 738 mmHg 79%
    21:00 +17°C° 0.1 mm 4 mps 738 mmHg 83%
    22:00 +15°C° 0 mm 4 mps 738 mmHg 85%
    23:00 +16°C° 0 mm 3 mps 738 mmHg 86%

    Tomorrow, 24 May, Friday

    Time Temperature Precipitation Wind Pressure Humidity
    00:00 +14°C° 0 mm 3 mps 738 mmHg 88%
    01:00 +14°C° 0 mm 3 mps 738 mmHg 89%
    02:00 +14°C° 0 mm 3 mps 738 mmHg 91%
    03:00 +13°C° 0 mm 3 mps 738 mmHg 92%
    04:00 +13°C° 0 mm 3 mps 738 mmHg 91%
    05:00 +15°C° 0 mm 2 mps 739 mmHg 90%
    06:00 +15°C° 0 mm 2 mps 739 mmHg 88%
    07:00 +17°C° 0 mm 2 mps 739 mmHg 81%
    08:00 +19°C° 0 mm 2 mps 739 mmHg 74%
    09:00 +21°C° 0 mm 2 mps 740 mmHg 67%
    10:00 +23°C° 0 mm 2 mps 740 mmHg 62%
    11:00 +24°C° 0 mm 2 mps 740 mmHg 57%
    12:00 +25°C° 0 mm 3 mps 740 mmHg 52%
    13:00 +26°C° 0 mm 3 mps 740 mmHg 52%
    14:00 +26°C° 0 mm 3 mps 740 mmHg 52%
    15:00 +26°C° 0 mm 3 mps 740 mmHg 52%
    16:00 +25°C° 0.2 mm 3 mps 739 mmHg 56%
    17:00 +25°C° 0.2 mm 3 mps 739 mmHg 59%
    18:00 +25°C° 0.2 mm 3 mps 739 mmHg 62%
    19:00 +23°C° 0.1 mm 2 mps 739 mmHg 67%
    20:00 +20°C° 0.1 mm 2 mps 739 mmHg 72%
    21:00 +19°C° 0.1 mm 2 mps 740 mmHg 76%
    22:00 +19°C° 0 mm 1 mps 740 mmHg 76%
    23:00 +19°C° 0 mm 1 mps 739 mmHg 76%

    Day after tomorrow, 25 May, Saturday

    Time Temperature Precipitation Wind Pressure Humidity
    00:00 +18°C° 0 mm 1 mps 739 mmHg 76%
    01:00 +18°C° 0 mm 1 mps 739 mmHg 75%
    02:00 +18°C° 0 mm 1 mps 739 mmHg 74%
    03:00 +16°C° 0 mm 1 mps 739 mmHg 73%
    04:00 +18°C° 0 mm 1 mps 739 mmHg 72%
    05:00 +18°C° 0 mm 1 mps 739 mmHg 72%
    06:00 +19°C° 0 mm 1 mps 739 mmHg 72%
    07:00 +20°C° 0 mm 1 mps 739 mmHg 68%
    08:00 +21°C° 0 mm 2 mps 739 mmHg 64%
    09:00 +24°C° 0 mm 3 mps 740 mmHg 61%
    10:00 +25°C° 0.1 mm 3 mps 739 mmHg 57%
    11:00 +26°C° 0.1 mm 4 mps 739 mmHg 53%
    12:00 +27°C° 0.1 mm 4 mps 739 mmHg 50%
    13:00 +27°C° 1.5 mm 4 mps 739 mmHg 52%
    14:00 +26°C° 1.5 mm 3 mps 738 mmHg 55%
    15:00 +26°C° 1.5 mm 3 mps 738 mmHg 57%
    16:00 +24°C° 2.7 mm 3 mps 738 mmHg 66%
    17:00 +22°C° 2.7 mm 3 mps 737 mmHg 74%
    18:00 +20°C° 2.7 mm 3 mps 737 mmHg 82%
    19:00 +19°C° 3.7 mm 3 mps 737 mmHg 85%
    20:00 +19°C° 3.7 mm 2 mps 737 mmHg 88%
    21:00 +18°C° 3.7 mm 2 mps 736 mmHg 91%
    22:00 +17°C° 0.7 mm 3 mps 736 mmHg 91%
    23:00 +17°C° 0.7 mm 4 mps 736 mmHg 92%

    26 May, Sunday

    Time Temperature Precipitation Wind Pressure Humidity
    00:00 +16°C° 0.7 mm 5 mps 736 mmHg 92%
    01:00 +16°C° 0 mm 6 mps 736 mmHg 91%
    02:00 +15°C° 0 mm 6 mps 736 mmHg 91%
    03:00 +15°C° 0 mm 7 mps 736 mmHg 90%
    04:00 +15°C° 0.1 mm 7 mps 737 mmHg 90%
    05:00 +15°C° 0.1 mm 6 mps 737 mmHg 90%
    06:00 +15°C° 0.1 mm 6 mps 737 mmHg 89%
    07:00 +15°C° 1.2 mm 5 mps 737 mmHg 89%
    08:00 +15°C° 1.2 mm 5 mps 737 mmHg 88%
    09:00 +15°C° 1.2 mm 5 mps 738 mmHg 88%
    10:00 +17°C° 0.7 mm 5 mps 738 mmHg 84%
    11:00 +19°C° 0.7 mm 6 mps 738 mmHg 80%
    12:00 +20°C° 0.7 mm 6 mps 739 mmHg 76%
    13:00 +21°C° 0.1 mm 7 mps 739 mmHg 74%
    14:00 +21°C° 0.1 mm 7 mps 739 mmHg 72%
    15:00 +22°C° 0.1 mm 7 mps 739 mmHg 69%
    16:00 +22°C° 0 mm 7 mps 739 mmHg 71%
    17:00 +21°C° 0 mm 7 mps 739 mmHg 72%
    18:00 +21°C° 0 mm 6 mps 739 mmHg 73%
    19:00 +20°C° 0 mm 6 mps 739 mmHg 77%
    20:00 +19°C° 0 mm 5 mps 739 mmHg 80%
    21:00 +17°C° 0 mm 5 mps 739 mmHg 83%
    22:00 +16°C° 0.7 mm 5 mps 740 mmHg 86%
    23:00 +16°C° 0.7 mm 5 mps 740 mmHg 89%

    27 May, Monday

    Time Temperature Precipitation Wind Pressure Humidity
    00:00 +16°C° 0.7 mm 5 mps 740 mmHg 92%
    01:00 +15°C° 0.1 mm 4 mps 740 mmHg 93%
    02:00 +15°C° 0.1 mm 4 mps 741 mmHg 95%
    03:00 +16°C° 0.1 mm 3 mps 741 mmHg 96%
    04:00 +16°C° 0 mm 3 mps 741 mmHg 94%
    05:00 +16°C° 0 mm 3 mps 742 mmHg 92%
    06:00 +17°C° 0 mm 2 mps 742 mmHg 90%
    07:00 +18°C° 0 mm 3 mps 743 mmHg 82%
    08:00 +20°C° 0 mm 3 mps 743 mmHg 75%
    09:00 +22°C° 0 mm 3 mps 744 mmHg 68%
    10:00 +23°C° 0 mm 4 mps 744 mmHg 64%
    11:00 +25°C° 0 mm 4 mps 744 mmHg 60%
    12:00 +26°C° 0 mm 4 mps 745 mmHg 56%
    13:00 +26°C° 0 mm 4 mps 745 mmHg 54%
    14:00 +27°C° 0 mm 4 mps 745 mmHg 53%
    15:00 +27°C° 0 mm 4 mps 745 mmHg 52%
    16:00 +27°C° 0 mm 3 mps 745 mmHg 55%
    17:00 +27°C° 0 mm 3 mps 745 mmHg 57%
    18:00 +27°C° 0 mm 2 mps 745 mmHg 60%
    19:00 +25°C° 0 mm 2 mps 745 mmHg 67%
    20:00 +22°C° 0 mm 3 mps 745 mmHg 74%
    21:00 +20°C° 0 mm 3 mps 746 mmHg 81%
    22:00 +19°C° 0 mm 3 mps 746 mmHg 83%
    23:00 +18°C° 0 mm 2 mps 746 mmHg 85%

    28 May, Tuesday

    Time Temperature Precipitation Wind Pressure Humidity
    00:00 +18°C° 0 mm 2 mps 746 mmHg 87%
    01:00 +18°C° 0 mm 2 mps 746 mmHg 87%
    02:00 +18°C° 0 mm 1 mps 746 mmHg 86%
    03:00 +18°C° 0 mm 1 mps 746 mmHg 86%
    04:00 +19°C° 0 mm 1 mps 746 mmHg 84%
    05:00 +19°C° 0 mm 1 mps 746 mmHg 82%
    06:00 +20°C° 0 mm 1 mps 746 mmHg 80%
    07:00 +22°C° 0 mm 1 mps 747 mmHg 74%
    08:00 +23°C° 0 mm 2 mps 747 mmHg 68%
    09:00 +25°C° 0 mm 3 mps 747 mmHg 62%
    10:00 +26°C° 0 mm 3 mps 747 mmHg 58%
    11:00 +27°C° 0 mm 3 mps 747 mmHg 55%
    12:00 +28°C° 0 mm 4 mps 747 mmHg 52%
    13:00 +28°C° 0 mm 4 mps 746 mmHg 50%
    14:00 +29°C° 0 mm 4 mps 746 mmHg 49%
    15:00 +29°C° 0 mm 3 mps 746 mmHg 47%
    16:00 +29°C° 0 mm 3 mps 746 mmHg 51%
    17:00 +29°C° 0 mm 3 mps 745 mmHg 55%
    18:00 +28°C° 0 mm 2 mps 745 mmHg 59%
    19:00 +27°C° 0 mm 3 mps 745 mmHg 62%
    20:00 +25°C° 0 mm 3 mps 745 mmHg 65%
    21:00 +22°C° 0 mm 3 mps 745 mmHg 68%
    22:00 +21°C° 0 mm 3 mps 745 mmHg 70%
    23:00 +21°C° 0 mm 3 mps 745 mmHg 71%
    Show more